Terug naar catalogus

IGS O-7

ActiefMilitairSSO
NORAD 45165·PAYLOAD·🇯🇵 Japan

Gelanceerd Feb 9, 2020 vanaf Tanegashima Space Center

Loading…

Volgende Passages (komende 24 uur)

TLE

VerouderdSource: Mike McCants

Epoch: Aug 28, 2026, 21:58 UTC

1 45165U 20009A   26240.91536982 0.00000000  00000-0  00000-0 0    02
2 45165  97.3343 314.6554 0006050 319.7024  40.2974 15.27649929    07

Volg IGS O-7 in realtime met AllMySat

Download on the App Store